AAL4618 KDCA-KRDU

Flight info

Callsign AAL4618
Flight time N/A
Altitude 26000
Route JDUBB4 MELTN ALDAN4
Aircraft CRJ9/M-SDFGIRWY/S

Departure

Time 2026-04-26 12:49
Airport Ronald Reagan Washington National Airport (KDCA)

Arrival

Time N/A
Airport Raleigh-Durham International Airport (KRDU)
Time Latitude Longitude Altitude Speed Heading
2026-04-26 12:31 38.85030 -77.04044 20 ft 0 kts 270°
2026-04-26 12:39 38.85030 -77.04034 20 ft 4 kts 270°
2026-04-26 12:39 38.85030 -77.04001 21 ft 3 kts 267°
2026-04-26 12:39 38.85033 -77.03980 22 ft 2 kts 251°
2026-04-26 12:39 38.85039 -77.03969 22 ft 2 kts 208°
2026-04-26 12:40 38.85050 -77.03966 20 ft 2 kts 181°
2026-04-26 12:40 38.85060 -77.03966 22 ft 2 kts 176°
2026-04-26 12:40 38.85065 -77.03967 21 ft 0 kts 175°
2026-04-26 12:41 38.85064 -77.03967 21 ft 0 kts 175°
2026-04-26 12:41 38.85058 -77.03966 22 ft 1 kts 175°
2026-04-26 12:41 38.85049 -77.03965 20 ft 0 kts 175°
2026-04-26 12:42 38.85047 -77.03965 20 ft 1 kts 175°
2026-04-26 12:42 38.85021 -77.03962 22 ft 6 kts 175°
2026-04-26 12:43 38.84968 -77.03957 19 ft 9 kts 175°
2026-04-26 12:43 38.84901 -77.03945 19 ft 10 kts 160°
2026-04-26 12:43 38.84875 -77.03911 19 ft 4 kts 124°
2026-04-26 12:43 38.84852 -77.03889 19 ft 4 kts 156°
2026-04-26 12:44 38.84826 -77.03881 21 ft 3 kts 171°
2026-04-26 12:44 38.84808 -77.03879 21 ft 2 kts 179°
2026-04-26 12:44 38.84798 -77.03879 21 ft 1 kts 179°
2026-04-26 12:44 38.84792 -77.03879 22 ft 0 kts 179°
2026-04-26 12:45 38.84777 -77.03878 22 ft 6 kts 178°
2026-04-26 12:45 38.84744 -77.03876 23 ft 8 kts 176°
2026-04-26 12:45 38.84683 -77.03869 24 ft 10 kts 173°
2026-04-26 12:45 38.84600 -77.03861 22 ft 14 kts 176°
2026-04-26 12:46 38.84503 -77.03851 22 ft 14 kts 175°
2026-04-26 12:46 38.84476 -77.03848 23 ft 0 kts 175°
2026-04-26 12:46 38.84446 -77.03845 24 ft 9 kts 176°
2026-04-26 12:46 38.84376 -77.03838 25 ft 10 kts 175°
2026-04-26 12:47 38.84309 -77.03832 25 ft 10 kts 176°
2026-04-26 12:47 38.84239 -77.03809 23 ft 11 kts 143°
2026-04-26 12:47 38.84200 -77.03725 22 ft 8 kts 92°
2026-04-26 12:47 38.84203 -77.03706 22 ft 2 kts 52°
2026-04-26 12:48 38.84222 -77.03688 22 ft 5 kts 15°
2026-04-26 12:48 38.84245 -77.03686 21 ft 0 kts 359°
2026-04-26 12:48 38.84324 -77.03693 21 ft 41 kts 355°
2026-04-26 12:48 38.84882 -77.03750 22 ft 117 kts 355°
2026-04-26 12:49 38.85896 -77.03845 87 ft 168 kts 356°
2026-04-26 12:49 38.87097 -77.03922 526 ft 170 kts 357°
2026-04-26 12:49 38.88254 -77.03984 1040 ft 168 kts 358°
2026-04-26 12:49 38.89431 -77.04019 1464 ft 169 kts 359°
2026-04-26 12:50 38.90606 -77.04092 1903 ft 170 kts 346°
2026-04-26 12:50 38.91497 -77.05014 2220 ft 169 kts 291°
2026-04-26 12:50 38.91839 -77.06438 2665 ft 167 kts 288°
2026-04-26 12:50 38.92267 -77.07824 3098 ft 167 kts 295°
2026-04-26 12:51 38.92487 -77.09301 3414 ft 182 kts 254°
2026-04-26 12:51 38.91708 -77.10548 4077 ft 184 kts 210°
2026-04-26 12:51 38.90727 -77.11577 4785 ft 187 kts 243°
2026-04-26 12:51 38.90638 -77.13173 5431 ft 188 kts 292°
2026-04-26 12:52 38.91548 -77.14332 6082 ft 191 kts 341°
2026-04-26 12:52 38.92866 -77.14399 6774 ft 191 kts